When you browse on this site, cookies collect data to enhance your experience and personalize the content and advertising you see.
Visit our Privacy Policy to learn more. By continuing to use the site, you agree to this use of cookies and data.
  • In Schweiz
  • Länderverzeichnis
  • Für 7 Tage
  • Wassertemperatur
  • Satellitenkarten
  • Wetterkarte
  • Widgets
  • user-avatar
    Anmelden

    Stündliche Wetter Plakhtyanka

    Heute, 20 Juli, Samstag

    Zeit Temperatur Niederschläge Wind Luftdruck Luftfeuchtigkeit
    00:00 +16°C° 0 mm 2 m/S 748 mmHg 85%
    01:00 +16°C° 0 mm 2 m/S 748 mmHg 86%
    02:00 +16°C° 0 mm 2 m/S 748 mmHg 84%
    03:00 +16°C° 0 mm 2 m/S 748 mmHg 84%
    04:00 +15°C° 0 mm 2 m/S 748 mmHg 85%
    05:00 +15°C° 0 mm 2 m/S 749 mmHg 85%
    06:00 +17°C° 0 mm 2 m/S 749 mmHg 79%
    07:00 +19°C° 0 mm 2 m/S 749 mmHg 73%
    08:00 +23°C° 0 mm 2 m/S 749 mmHg 67%
    09:00 +24°C° 0 mm 2 m/S 749 mmHg 60%
    10:00 +25°C° 0 mm 2 m/S 749 mmHg 53%
    11:00 +27°C° 0 mm 2 m/S 749 mmHg 46%
    12:00 +27°C° 0 mm 2 m/S 749 mmHg 45%
    13:00 +27°C° 0 mm 2 m/S 749 mmHg 44%
    14:00 +28°C° 0 mm 2 m/S 749 mmHg 43%
    15:00 +27°C° 0 mm 2 m/S 749 mmHg 48%
    16:00 +27°C° 0 mm 2 m/S 749 mmHg 54%
    17:00 +26°C° 0 mm 2 m/S 749 mmHg 59%
    18:00 +24°C° 0.1 mm 2 m/S 749 mmHg 64%
    19:00 +23°C° 0.1 mm 2 m/S 749 mmHg 70%
    20:00 +21°C° 0.1 mm 1 m/S 749 mmHg 75%
    21:00 +20°C° 0.1 mm 1 m/S 749 mmHg 77%
    22:00 +19°C° 0.1 mm 2 m/S 749 mmHg 80%
    23:00 +18°C° 0.1 mm 2 m/S 749 mmHg 82%

    Morgen, 21 Juli, Sonntag

    Zeit Temperatur Niederschläge Wind Luftdruck Luftfeuchtigkeit
    00:00 +18°C° 0 mm 2 m/S 749 mmHg 83%
    01:00 +17°C° 0 mm 2 m/S 749 mmHg 84%
    02:00 +17°C° 0 mm 2 m/S 749 mmHg 86%
    03:00 +17°C° 0 mm 2 m/S 749 mmHg 87%
    04:00 +18°C° 0 mm 1 m/S 749 mmHg 88%
    05:00 +18°C° 0 mm 1 m/S 749 mmHg 90%
    06:00 +19°C° 0 mm 1 m/S 749 mmHg 83%
    07:00 +21°C° 0 mm 1 m/S 749 mmHg 77%
    08:00 +21°C° 0 mm 0 m/S 749 mmHg 70%
    09:00 +25°C° 0 mm 1 m/S 749 mmHg 65%
    10:00 +26°C° 0 mm 1 m/S 749 mmHg 60%
    11:00 +28°C° 0 mm 1 m/S 749 mmHg 55%
    12:00 +28°C° 0.1 mm 1 m/S 749 mmHg 52%
    13:00 +29°C° 0.1 mm 1 m/S 748 mmHg 49%
    14:00 +30°C° 0.1 mm 1 m/S 748 mmHg 46%
    15:00 +29°C° 0 mm 1 m/S 748 mmHg 47%
    16:00 +29°C° 0 mm 1 m/S 748 mmHg 48%
    17:00 +29°C° 0 mm 1 m/S 748 mmHg 49%
    18:00 +27°C° 0 mm 1 m/S 748 mmHg 55%
    19:00 +25°C° 0 mm 1 m/S 748 mmHg 62%
    20:00 +24°C° 0 mm 1 m/S 747 mmHg 68%
    21:00 +23°C° 0 mm 1 m/S 748 mmHg 71%
    22:00 +22°C° 0 mm 1 m/S 748 mmHg 74%
    23:00 +21°C° 0 mm 1 m/S 748 mmHg 77%

    übermorgen, 22 Juli, Montag

    Zeit Temperatur Niederschläge Wind Luftdruck Luftfeuchtigkeit
    00:00 +21°C° 0 mm 1 m/S 748 mmHg 79%
    01:00 +20°C° 0 mm 1 m/S 747 mmHg 80%
    02:00 +20°C° 0 mm 1 m/S 747 mmHg 82%
    03:00 +20°C° 0 mm 1 m/S 747 mmHg 84%
    04:00 +20°C° 0 mm 1 m/S 747 mmHg 85%
    05:00 +19°C° 0 mm 1 m/S 747 mmHg 87%
    06:00 +20°C° 0 mm 2 m/S 747 mmHg 84%
    07:00 +21°C° 0 mm 2 m/S 747 mmHg 81%
    08:00 +23°C° 0 mm 2 m/S 747 mmHg 78%
    09:00 +24°C° 0.3 mm 2 m/S 747 mmHg 77%
    10:00 +24°C° 0.3 mm 2 m/S 747 mmHg 77%
    11:00 +24°C° 0.3 mm 2 m/S 747 mmHg 77%
    12:00 +25°C° 1.3 mm 3 m/S 747 mmHg 73%
    13:00 +26°C° 1.3 mm 4 m/S 747 mmHg 69%
    14:00 +27°C° 1.3 mm 5 m/S 746 mmHg 65%
    15:00 +27°C° 0.2 mm 5 m/S 746 mmHg 66%
    16:00 +27°C° 0.2 mm 5 m/S 746 mmHg 67%
    17:00 +26°C° 0.2 mm 5 m/S 746 mmHg 68%
    18:00 +25°C° 0.3 mm 4 m/S 746 mmHg 75%
    19:00 +22°C° 0.3 mm 4 m/S 746 mmHg 82%
    20:00 +20°C° 0.3 mm 4 m/S 746 mmHg 89%
    21:00 +20°C° 0.1 mm 4 m/S 746 mmHg 90%
    22:00 +19°C° 0.1 mm 4 m/S 746 mmHg 91%
    23:00 +18°C° 0.1 mm 4 m/S 747 mmHg 93%

    23 Juli, Dienstag

    Zeit Temperatur Niederschläge Wind Luftdruck Luftfeuchtigkeit
    00:00 +18°C° 0 mm 3 m/S 746 mmHg 94%
    01:00 +17°C° 0 mm 3 m/S 746 mmHg 95%
    02:00 +17°C° 0 mm 3 m/S 746 mmHg 96%
    03:00 +17°C° 0 mm 3 m/S 746 mmHg 96%
    04:00 +16°C° 0 mm 3 m/S 746 mmHg 97%
    05:00 +15°C° 0 mm 4 m/S 747 mmHg 97%
    06:00 +17°C° 0 mm 4 m/S 746 mmHg 94%
    07:00 +17°C° 0 mm 4 m/S 746 mmHg 92%
    08:00 +18°C° 0 mm 4 m/S 746 mmHg 89%
    09:00 +18°C° 0 mm 4 m/S 747 mmHg 86%
    10:00 +19°C° 0 mm 4 m/S 747 mmHg 83%
    11:00 +19°C° 0 mm 4 m/S 747 mmHg 80%
    12:00 +19°C° 0 mm 4 m/S 747 mmHg 77%
    13:00 +20°C° 0 mm 4 m/S 746 mmHg 75%
    14:00 +21°C° 0 mm 4 m/S 746 mmHg 72%
    15:00 +21°C° 0.1 mm 4 m/S 746 mmHg 72%
    16:00 +21°C° 0.1 mm 4 m/S 746 mmHg 73%
    17:00 +21°C° 0.1 mm 3 m/S 746 mmHg 73%
    18:00 +20°C° 0.2 mm 3 m/S 746 mmHg 79%
    19:00 +19°C° 0.2 mm 2 m/S 746 mmHg 85%
    20:00 +17°C° 0.2 mm 2 m/S 746 mmHg 91%
    21:00 +17°C° 0 mm 2 m/S 746 mmHg 93%
    22:00 +16°C° 0 mm 2 m/S 746 mmHg 94%
    23:00 +15°C° 0 mm 2 m/S 746 mmHg 96%

    24 Juli, Mittwoch

    Zeit Temperatur Niederschläge Wind Luftdruck Luftfeuchtigkeit
    00:00 +15°C° 0 mm 2 m/S 745 mmHg 96%
    01:00 +15°C° 0 mm 2 m/S 745 mmHg 96%
    02:00 +14°C° 0 mm 1 m/S 745 mmHg 97%
    03:00 +14°C° 0 mm 1 m/S 745 mmHg 96%
    04:00 +14°C° 0 mm 1 m/S 745 mmHg 96%
    05:00 +13°C° 0 mm 0 m/S 745 mmHg 96%
    06:00 +15°C° 0 mm 0 m/S 745 mmHg 92%
    07:00 +18°C° 0 mm 1 m/S 746 mmHg 87%
    08:00 +20°C° 0 mm 1 m/S 746 mmHg 83%
    09:00 +21°C° 0 mm 1 m/S 746 mmHg 78%
    10:00 +22°C° 0 mm 1 m/S 746 mmHg 74%
    11:00 +23°C° 0 mm 2 m/S 746 mmHg 70%
    12:00 +21°C° 0.1 mm 2 m/S 746 mmHg 73%
    13:00 +21°C° 0.1 mm 2 m/S 746 mmHg 77%
    14:00 +21°C° 0.1 mm 2 m/S 746 mmHg 81%
    15:00 +21°C° 0.1 mm 2 m/S 746 mmHg 79%
    16:00 +21°C° 0.1 mm 2 m/S 746 mmHg 77%
    17:00 +23°C° 0.1 mm 2 m/S 746 mmHg 76%
    18:00 +21°C° 0.1 mm 2 m/S 746 mmHg 79%
    19:00 +21°C° 0.1 mm 2 m/S 746 mmHg 83%
    20:00 +20°C° 0.1 mm 2 m/S 746 mmHg 86%
    21:00 +20°C° 0 mm 3 m/S 746 mmHg 87%
    22:00 +19°C° 0 mm 3 m/S 746 mmHg 88%
    23:00 +19°C° 0 mm 3 m/S 746 mmHg 89%

    25 Juli, Donnerstag

    Zeit Temperatur Niederschläge Wind Luftdruck Luftfeuchtigkeit
    00:00 +18°C° 0 mm 3 m/S 746 mmHg 89%
    01:00 +18°C° 0 mm 3 m/S 746 mmHg 90%
    02:00 +17°C° 0 mm 3 m/S 746 mmHg 91%
    03:00 +17°C° 0 mm 3 m/S 746 mmHg 92%
    04:00 +17°C° 0 mm 3 m/S 746 mmHg 93%
    05:00 +17°C° 0 mm 3 m/S 746 mmHg 94%
    06:00 +18°C° 0 mm 4 m/S 746 mmHg 91%
    07:00 +19°C° 0 mm 4 m/S 746 mmHg 88%
    08:00 +21°C° 0 mm 5 m/S 747 mmHg 84%
    09:00 +22°C° 0 mm 4 m/S 747 mmHg 81%
    10:00 +22°C° 0 mm 4 m/S 747 mmHg 78%
    11:00 +23°C° 0 mm 4 m/S 747 mmHg 75%
    12:00 +26°C° 0 mm 4 m/S 746 mmHg 69%
    13:00 +27°C° 0 mm 4 m/S 746 mmHg 63%
    14:00 +28°C° 0 mm 4 m/S 746 mmHg 56%
    15:00 +28°C° 0 mm 4 m/S 746 mmHg 57%
    16:00 +28°C° 0 mm 4 m/S 746 mmHg 58%
    17:00 +28°C° 0 mm 4 m/S 746 mmHg 58%
    18:00 +26°C° 0 mm 4 m/S 746 mmHg 65%
    19:00 +25°C° 0 mm 3 m/S 746 mmHg 73%
    20:00 +22°C° 0 mm 3 m/S 746 mmHg 80%
    21:00 +21°C° 0 mm 3 m/S 746 mmHg 84%
    22:00 +21°C° 0 mm 3 m/S 746 mmHg 88%
    23:00 +20°C° 0 mm 3 m/S 746 mmHg 91%
    Mehr zeigen